Location: Val-d'Or
(48.1170°N, 77.7670°W)
Time: 09:11:12
(UTC-04:00)

OTV 5 (USA 277) - Visible Passes

Search period start: 16 October 2018 00:00
Search period end: 26 October 2018 00:00
Orbit: 387 x 394 km, 54.5° (Epoch: 08 September)

Date Brightness Start Highest point End Pass type
(mag) Time Alt. Az. Time Alt. Az. Time Alt. Az.
16 Oct ? 04:35:48 10° E 04:35:48 10° E 04:35:52 10° E visible
16 Oct ? 06:08:14 29° SW 06:08:34 29° SW 06:11:24 10° SSE visible
17 Oct ? 05:14:34 17° SE 05:14:34 17° SE 05:15:26 10° SE visible
18 Oct ? 05:53:28 11° S 05:53:28 11° S 05:53:41 10° S visible
24 Oct ? 20:00:53 10° SSW 20:02:22 22° S 20:02:22 22° S visible
25 Oct ? 19:05:23 10° S 19:07:35 17° SE 19:08:28 16° ESE visible
25 Oct ? 20:40:00 10° WSW 20:40:52 17° WSW 20:40:52 17° WSW visible
